1493906400.59,24607,14.69,73656.8,4.65,3.33,3.45,0,*7C
1493906401.79,24608,14.69,73658.3,4.65,3.25,3.37,0,*71
1493906403.02,24609,14.69,73652.3,4.63,3.25,3.37,0,*76
1493906404.24,24610,14.69,73656.8,4.65,3.37,3.45,0,*7E
1493906405.47,24611,14.69,73656.8,4.63,3.45,3.59,0,*71
1493906406.73,24612,14.69,73658.3,4.63,3.07,3.11,0,*78
1493906407.96,24613,14.69,73658.3,4.63,2.95,3.07,0,*74
1493906409.19,24614,14.69,73656.8,4.63,2.99,3.07,0,*7F
1493906410.42,24615,14.69,73654.3,4.63,3.23,3.25,0,*7E
1493906411.68,24616,14.69,73658.3,4.63,3.23,3.23,0,*7B
1493906412.93,24617,14.69,73656.3,4.63,3.23,3.23,0,*7A
1493906414.16,24618,14.69,73652.0,4.61,3.33,3.45,0,*76
1493906415.4,24619,14.69,73656.8,4.61,3.41,3.41,0,*76
1493906416.62,24620,14.69,73654.3,4.61,3.19,3.19,0,*7C
1493906417.88,24621,14.69,73654.3,4.63,3.33,3.45,0,*7E
1493906419.11,24622,14.69,73654.3,4.63,3.79,3.81,0,*7B
1493906420.34,24623,14.69,73656.0,4.61,3.41,3.53,0,*7C
1493906421.57,24624,14.69,73654.3,4.61,3.45,3.53,0,*7F
1493906422.77,24625,14.69,73650.5,4.61,3.63,3.67,0,*7D
1493906423.96,24626,14.69,73654.3,4.61,3.29,3.29,0,*7A
1493906425.19,24627,14.69,73654.0,4.57,3.07,3.11,0,*79
1493906426.39,24628,14.69,73658.3,4.61,2.81,2.91,0,*75
1493906427.62,24629,14.69,73652.0,4.61,3.19,3.23,0,*7C
1493906428.79,24630,14.69,73656.0,4.57,3.63,3.55,0,*7D
1493906429.99,24631,14.69,73652.5,4.61,3.63,3.67,0,*78
1493906431.2,24632,14.69,73654.3,4.61,3.63,3.75,0,*78
1493906432.4,24633,14.69,73652.3,4.57,3.63,3.75,0,*7C
1493906433.6,24634,14.69,73654.8,4.57,3.79,3.85,0,*7F
1493906434.82,24635,14.69,73654.5,4.61,3.45,3.53,0,*7F
1493906436.03,24636,14.69,73658.3,4.61,3.23,3.29,0,*71
1493906437.27,24637,14.69,73656.8,4.61,3.03,3.07,0,*7E
1493906438.5,24638,14.69,73656.5,4.57,3.41,3.45,0,*74
1493906439.72,24639,14.69,73654.8,4.61,3.19,3.23,0,*7D
1493906440.92,24640,14.69,73656.8,4.61,3.53,3.63,0,*79
1493906442.13,24641,14.69,73658.5,4.61,3.63,3.67,0,*7F
1493906443.33,24642,14.69,73658.5,4.61,3.63,3.75,0,*7F
1493906444.54,24643,14.69,73658.0,4.61,3.63,3.75,0,*7E
1493906445.77,24644,14.69,73656.0,4.57,3.45,3.41,0,*7F
1493906447.0,24645,14.69,73656.8,4.61,3.03,3.07,0,*7B
1493906448.23,24646,14.69,73654.0,4.57,3.11,3.19,0,*71
1493906449.43,24647,14.69,73658.0,4.57,3.19,3.29,0,*7B
1493906450.66,24648,14.69,73658.5,4.57,3.41,3.41,0,*77
1493906451.87,24649,14.69,73658.3,4.57,3.29,3.45,0,*7C
1493906453.08,24650,14.69,73658.5,4.57,3.23,3.29,0,*74
1493906454.31,24651,14.69,73658.5,4.61,3.41,3.41,0,*7A
1493906455.55,24652,14.69,73654.8,4.57,3.41,3.45,0,*78
1493906456.74,24653,14.69,73656.3,4.57,3.53,3.63,0,*7E
1493906457.97,24654,14.69,73656.8,4.57,3.33,3.41,0,*7F
1493906459.19,24655,14.69,73656.8,4.57,3.33,3.53,0,*7D
1493906460.41,24656,14.69,73654.8,4.55,3.49,3.63,0,*72
1493906461.6,24657,14.69,73652.8,4.61,3.85,3.93,0,*7B
1493906462.79,24658,14.69,73658.8,4.57,4.01,4.11,0,*77
1493906464.0,24659,14.69,73654.3,4.57,4.05,4.15,0,*76
1493906465.19,24660,14.69,73658.0,4.57,4.01,4.11,0,*7C
1493906466.4,24661,14.69,73658.5,4.61,3.93,4.05,0,*71
1493906467.64,24662,14.69,73658.0,4.61,3.67,3.75,0,*79
1493906468.87,24663,14.69,73658.8,4.61,3.75,3.79,0,*77
1493906470.08,24664,14.69,73652.5,4.61,3.63,3.75,0,*7B
1493906471.29,24665,14.69,73656.0,4.61,3.75,3.85,0,*72
1493906472.49,24666,14.69,73656.8,4.61,3.75,3.85,0,*71
1493906473.7,24667,14.69,73654.8,4.61,3.79,3.85,0,*7C
1493906474.93,24668,14.69,73656.3,4.61,3.41,3.53,0,*73
1493906476.14,24669,14.69,73654.5,4.61,3.23,3.29,0,*7B
1493906477.37,24670,14.69,73658.5,4.61,3.11,3.19,0,*71
1493906478.57,24671,14.69,73656.0,4.61,3.55,3.67,0,*79
1493906479.77,24672,14.69,73658.3,4.57,3.45,3.55,0,*7F
1493906480.99,24673,14.69,73658.5,4.61,3.53,3.67,0,*7D
1493906482.2,24674,14.69,73656.8,4.61,3.79,3.85,0,*7E
1493906483.43,24675,14.69,73656.0,4.63,3.93,3.97,0,*7A
1493906484.63,24676,14.69,73654.0,4.61,3.63,3.75,0,*78
1493906485.84,24677,14.69,73658.5,4.61,3.63,3.75,0,*79
1493906487.04,24678,14.69,73656.3,4.61,3.93,4.01,0,*7D
1493906488.24,24679,14.69,73654.5,4.63,4.19,4.27,0,*7F
1493906489.48,24680,14.69,73658.8,4.63,4.05,4.15,0,*75
1493906490.68,24681,14.69,73654.8,4.65,3.89,3.97,0,*7C
1493906491.88,24682,14.69,73656.8,4.65,4.19,4.31,0,*7A
1493906493.08,24683,14.69,73658.0,4.65,4.27,4.31,0,*76
1493906494.29,24684,14.69,73658.3,4.65,3.93,4.05,0,*7E
1493906495.49,24685,14.69,73654.5,4.65,4.19,4.31,0,*7D
1493906496.72,24686,14.69,73658.0,4.67,4.23,4.31,0,*75
1493906497.93,24687,14.69,73656.3,4.67,4.33,4.45,0,*76
1493906499.11,24688,14.69,73658.5,4.69,4.53,4.57,0,*72
1493906500.37,24689,14.69,73658.0,4.67,4.63,4.67,0,*7D
1493906501.57,24690,14.69,73658.3,4.69,4.75,4.81,0,*74
1493906502.8,24691,14.69,73658.3,4.69,4.59,4.67,0,*73
1493906504.03,24692,14.69,73654.0,4.69,4.59,4.67,0,*70
1493906505.26,24693,14.69,73656.0,4.73,4.59,4.63,0,*7E
1493906506.44,24694,14.69,73656.3,4.73,4.15,4.27,0,*71
1493906507.65,24695,14.69,73658.0,4.73,4.27,4.31,0,*76
1493906508.83,24696,14.69,73652.5,4.73,4.37,4.41,0,*73
1493906510.04,24697,14.69,73654.5,4.73,3.93,4.01,0,*7F
1493906511.21,24698,14.69,73652.8,4.73,3.81,3.81,0,*7C
1493906512.44,24699,14.69,73654.3,4.73,4.01,4.01,0,*7D
1493906513.62,24700,14.69,73654.5,4.73,4.07,4.15,0,*7F
1493906514.82,24701,14.69,73654.3,4.73,3.93,4.01,0,*71
1493906516.04,24702,14.69,73654.3,4.73,4.01,4.05,0,*7A
1493906517.22,24703,14.69,73656.5,4.73,3.81,3.93,0,*7C
1493906518.46,24704,14.69,73652.8,4.73,3.67,3.71,0,*7F
1493906519.66,24705,14.69,73654.0,4.73,3.59,3.67,0,*74
1493906520.86,24706,14.69,73656.0,4.73,3.89,4.01,0,*7D
1493906522.04,24707,14.69,73652.0,4.73,4.07,4.15,0,*78
1493906523.27,24708,14.69,73654.0,4.73,4.05,4.05,0,*74
1493906524.45,24709,14.69,73656.8,4.73,4.27,4.41,0,*75
1493906525.65,24710,14.69,73652.3,4.73,4.49,4.59,0,*7C
1493906526.88,24711,14.69,73654.8,4.73,4.63,4.71,0,*7F
1493906528.09,24712,14.69,73654.5,4.73,4.53,4.63,0,*7C
1493906529.32,24713,14.69,73654.8,4.73,4.05,4.05,0,*7E
1493906530.5,24714,14.69,73652.8,4.73,3.89,3.81,0,*71
1493906531.73,24715,14.69,73656.3,4.73,3.23,3.23,0,*78
1493906532.96,24716,14.69,73652.0,4.73,3.07,3.11,0,*7C
1493906534.2,24717,14.69,73652.0,4.73,3.23,3.33,0,*7B
1493906535.39,24718,14.69,73652.0,4.73,3.59,3.67,0,*78
1493906536.6,24719,14.69,73652.5,4.73,3.93,4.01,0,*78
1493906537.82,24720,14.69,73652.8,4.73,3.33,3.37,0,*7A
1493906539.05,24721,14.69,73654.3,4.73,3.37,3.49,0,*76
1493906540.28,24722,14.69,73654.5,4.73,3.33,3.33,0,*7C
1493906541.47,24723,14.69,73652.3,4.69,2.85,2.95,0,*77
1493906542.68,24724,14.69,73652.8,4.69,3.23,3.29,0,*7B
1493906543.9,24725,14.69,73654.3,4.67,3.53,3.59,0,*74
1493906545.13,24726,14.69,73652.0,4.69,3.15,3.19,0,*7F
1493906546.37,24727,14.69,73652.5,4.67,3.15,3.25,0,*7F
1493906547.58,24728,14.69,73654.8,4.67,3.25,3.29,0,*7F
1493906548.81,24729,14.69,73654.0,4.67,3.25,3.37,0,*71
1493906550.03,24730,14.69,73656.0,4.67,3.49,3.59,0,*7B
1493906551.26,24731,14.69,73652.3,4.67,3.59,3.71,0,*71
1493906552.49,24732,14.69,73650.8,4.67,3.63,3.71,0,*7B
1493906553.75,24733,14.69,73652.3,4.67,3.15,3.15,0,*79
1493906555.01,24734,14.69,73652.8,4.67,3.03,3.15,0,*79
1493906556.27,24735,14.69,73650.3,4.63,3.15,3.15,0,*7B
1493906557.53,24736,14.69,73652.0,4.63,3.23,3.33,0,*79
1493906558.79,24737,14.69,73654.5,4.63,3.23,3.33,0,*78
1493906560.05,24738,14.69,73650.8,4.63,3.45,3.45,0,*76
1493906561.31,24739,14.69,73650.5,4.63,3.37,3.49,0,*7E
1493906562.57,24740,14.69,73650.0,4.63,3.11,3.15,0,*7D
1493906563.82,24741,14.69,73654.8,4.63,2.77,2.85,0,*75
1493906565.05,24742,14.69,73654.3,4.57,3.07,3.19,0,*73
1493906566.28,24743,14.69,73654.5,4.61,3.19,3.33,0,*70
1493906567.5,24744,14.69,73648.8,4.57,3.19,3.23,0,*73
1493906568.73,24745,14.69,73652.0,4.61,2.85,3.03,0,*71
1493906569.92,24746,14.69,73650.8,4.57,2.85,2.91,0,*7D
1493906571.12,24747,14.69,73648.8,4.57,2.85,2.95,0,*78
1493906572.32,24748,14.69,73654.3,4.57,2.95,3.07,0,*7C
1493906573.52,24749,14.69,73650.8,4.57,2.95,3.07,0,*7D
1493906574.78,24750,14.69,73654.5,4.55,3.15,3.19,0,*71
1493906576.01,24751,14.69,73652.3,4.55,3.15,3.25,0,*7F
1493906577.22,24752,14.69,73650.3,4.53,2.95,3.11,0,*74
1493906578.47,24753,14.69,73652.3,4.55,2.89,3.03,0,*7D
1493906579.68,24754,14.69,73652.8,4.53,2.51,2.61,0,*7C
1493906580.88,24755,14.69,73654.3,4.53,2.89,2.99,0,*7F
1493906582.11,24756,14.69,73652.0,4.53,3.33,3.49,0,*70
1493906583.34,24757,14.69,73650.8,4.53,3.33,3.49,0,*71
1493906584.54,24758,14.69,73654.3,4.53,3.55,3.67,0,*72
1493906585.77,24759,14.69,73652.5,4.53,3.71,3.79,0,*7A
1493906586.98,24760,14.69,73658.3,4.53,3.79,3.85,0,*7B
1493906588.19,24761,14.69,73660.3,4.53,3.79,3.81,0,*7E
1493906589.37,24762,14.69,73658.5,4.53,3.81,3.81,0,*7A
1493906590.6,24763,14.69,73660.8,4.53,3.15,3.11,0,*7F
1493906591.84,24764,14.69,73658.5,4.53,2.39,2.43,0,*71
1493906593.07,24765,14.69,73660.3,4.53,2.39,2.43,0,*70
1493906594.3,24766,14.69,73658.5,4.53,2.55,2.73,0,*7A
1493906595.5,24767,14.69,73656.8,4.49,2.85,2.99,0,*79
1493906596.73,24768,14.69,73658.8,4.49,2.69,2.73,0,*70
1493906597.96,24769,14.69,73656.8,4.49,2.51,2.59,0,*72
1493906599.19,24770,14.69,73658.8,4.49,2.47,2.59,0,*7D
1493906600.4,24771,14.69,73656.3,4.47,2.27,2.35,0,*7E
1493906601.65,24772,14.69,73656.5,4.47,2.01,2.01,0,*7E
1493906602.87,24773,14.69,73658.0,4.45,1.47,1.47,0,*7D
1493906604.07,24774,14.75,73660.3,4.45,0.97,0.91,0,*7C
1493906605.32,24775,14.69,73652.8,4.43,1.25,1.25,0,*7D
1493906606.52,24776,14.69,73652.5,4.41,1.83,1.93,0,*7D
1493906607.74,24777,14.69,73652.8,4.41,2.05,2.01,0,*79
1493906608.96,24778,14.69,73652.8,4.41,0.87,0.47,0,*7E
1493906610.18,24779,14.69,73658.0,4.35,-0.19,-0.15,0,*7C
1493906611.39,24780,14.69,73648.8,4.33,0.63,0.67,0,*74
1493906612.65,24781,14.69,73650.5,4.31,1.13,1.13,0,*73
1493906613.91,24782,14.69,73648.5,4.31,2.13,2.25,0,*75
1493906615.14,24783,14.69,73646.0,4.29,2.43,2.55,0,*7F
1493906616.35,24784,14.69,73646.3,4.29,2.91,3.03,0,*75
1493906617.6,24785,14.69,73644.0,4.31,3.53,3.67,0,*70
1493906618.85,24786,14.69,73642.8,4.35,4.01,4.05,0,*74
1493906620.03,24787,14.69,73644.8,4.33,3.85,3.89,0,*7B
1493906621.23,24788,14.75,73648.0,4.39,3.81,3.89,0,*7A
1493906622.46,24789,14.69,73646.8,4.39,3.89,4.01,0,*74
1493906623.67,24790,14.69,73646.8,4.39,3.89,3.93,0,*70
1493906624.91,24791,14.69,73644.5,4.39,3.53,3.53,0,*7A
1493906626.13,24792,14.69,73644.5,4.39,3.19,3.29,0,*7A
1493906627.36,24793,14.69,73646.3,4.41,3.11,3.23,0,*76
1493906628.56,24794,14.69,73644.0,4.41,3.49,3.59,0,*71
1493906629.8,24795,14.69,73644.3,4.43,3.53,3.71,0,*73
1493906631.03,24796,14.69,73644.5,4.43,3.63,3.71,0,*73
1493906632.23,24797,14.69,73646.5,4.45,3.63,3.75,0,*70
1493906633.44,24798,14.69,73648.0,4.47,3.81,3.89,0,*72
1493906634.66,24799,14.69,73648.0,4.47,4.01,4.11,0,*7A
1493906635.84,24800,14.69,73648.0,4.49,4.11,4.15,0,*7E
1493906637.02,24801,14.69,73650.3,4.49,4.23,4.37,0,*7E
1493906638.22,24802,14.69,73646.3,4.51,4.15,4.19,0,*7D
1493906639.46,24803,14.69,73650.8,4.51,4.31,4.37,0,*76
1493906640.72,24804,14.69,73646.8,4.55,4.59,4.79,0,*71
1493906641.91,24805,14.69,73652.8,4.55,4.81,4.89,0,*7A
1493906643.17,24806,14.69,73648.3,4.55,4.59,4.67,0,*7C
1493906644.37,24807,14.69,73650.5,4.55,3.63,3.63,0,*70
1493906645.6,24808,14.69,73650.8,4.57,3.33,3.45,0,*7C
1493906646.82,24809,14.69,73648.0,4.57,3.19,3.19,0,*7C
1493906648.04,24810,14.69,73650.8,4.57,2.73,2.81,0,*79
1493906649.24,24811,14.69,73650.3,4.57,2.85,2.95,0,*74
1493906650.47,24812,14.69,73650.8,4.53,2.73,2.89,0,*77
1493906651.69,24813,14.69,73652.5,4.55,2.89,2.99,0,*74
1493906652.92,24814,14.69,73658.0,4.55,2.99,3.03,0,*70
1493906654.13,24815,14.69,73658.3,4.53,3.15,3.25,0,*76
1493906655.37,24816,14.69,73656.3,4.55,3.25,3.41,0,*72
1493906656.6,24817,14.69,73654.0,4.53,3.23,3.37,0,*72
1493906657.86,24818,14.69,73652.5,4.55,3.41,3.49,0,*76
1493906659.08,24819,14.69,73654.8,4.55,3.49,3.59,0,*7E
1493906660.31,24820,14.69,73654.5,4.55,3.63,3.75,0,*72
1493906661.52,24821,14.69,73654.3,4.57,3.29,3.45,0,*7C
1493906662.78,24822,14.69,73654.8,4.55,3.07,3.15,0,*74
1493906664.01,24823,14.69,73656.5,4.55,3.37,3.29,0,*79
1493906665.19,24824,14.69,73656.3,4.57,2.65,2.61,0,*77
1493906666.39,24825,14.69,73654.5,4.53,2.85,2.99,0,*7B
1493906667.6,24826,14.69,73656.0,4.53,2.99,3.03,0,*77
1493906668.78,24827,14.69,73658.0,4.53,2.99,2.99,0,*74
1493906670.04,24828,14.69,73654.8,4.51,3.11,3.15,0,*7D
1493906671.29,24829,14.69,73656.0,4.51,3.23,3.23,0,*78
1493906672.51,24830,14.69,73654.5,4.51,3.25,3.45,0,*76
1493906673.73,24831,14.69,73654.0,4.53,3.15,3.25,0,*70
1493906674.95,24832,14.69,73658.0,4.53,3.33,3.37,0,*74
1493906676.15,24833,14.69,73656.5,4.53,3.49,3.55,0,*7C
1493906677.39,24834,14.69,73658.8,4.53,3.15,3.23,0,*73
1493906678.62,24835,14.69,73656.0,4.53,3.11,3.23,0,*76
1493906679.8,24836,14.69,73658.5,4.53,3.85,4.07,0,*79
1493906681.0,24837,14.69,73656.8,4.55,4.11,4.23,0,*72
1493906682.26,24838,14.69,73656.3,4.55,2.89,2.89,0,*7C
1493906683.45,24839,14.69,73650.8,4.53,2.25,2.31,0,*7E
1493906684.68,24840,14.69,73656.3,4.53,2.01,2.01,0,*75
1493906685.93,24841,14.69,73658.5,4.51,1.89,2.13,0,*76
1493906687.17,24842,14.69,73656.3,4.49,2.39,2.51,0,*72
1493906688.35,24843,14.69,73656.3,4.49,2.27,2.35,0,*7E
1493906689.55,24844,14.69,73654.5,4.49,2.85,2.99,0,*77
1493906690.75,24845,14.69,73652.5,4.49,2.95,3.07,0,*71
1493906691.96,24846,14.69,73648.0,4.49,3.29,3.45,0,*72
1493906693.17,24847,14.69,73650.0,4.49,3.29,3.41,0,*77
1493906694.36,24848,14.69,73650.8,4.49,3.29,3.29,0,*76
1493906695.54,24849,14.69,73648.3,4.49,3.63,3.81,0,*7B
1493906696.74,24850,14.69,73648.0,4.49,3.45,3.55,0,*7E
1493906697.99,24851,14.69,73646.0,4.51,3.45,3.49,0,*7B
1493906699.24,24852,14.69,73654.0,4.51,3.33,3.45,0,*75
1493906700.47,24853,14.69,73654.5,4.49,3.11,3.11,0,*7C
1493906701.7,24854,14.69,73654.8,4.51,2.89,2.99,0,*73
1493906702.9,24855,14.69,73652.3,4.49,1.63,1.79,0,*71
1493906704.08,24856,14.69,73654.0,4.49,2.27,2.35,0,*7A
1493906705.33,24857,14.69,73652.0,4.47,2.69,2.73,0,*7D
1493906706.56,24858,14.69,73648.5,4.47,2.95,3.07,0,*73
1493906707.81,24859,14.69,73648.8,4.47,3.07,3.19,0,*77
1493906709.07,24860,14.69,73648.3,4.47,2.51,2.69,0,*79
1493906710.33,24861,14.69,73652.5,4.47,3.07,3.23,0,*75
1493906711.55,24862,14.69,73648.5,4.47,2.85,2.91,0,*75
1493906712.77,24863,14.69,73652.5,4.47,2.73,2.91,0,*7D
1493906714.0,24864,14.69,73652.3,4.47,2.85,2.91,0,*73
1493906715.24,24865,14.69,73650.8,4.47,2.73,2.85,0,*7E
1493906716.47,24866,14.69,73648.8,4.47,2.95,3.07,0,*7E
1493906717.73,24867,14.69,73648.0,4.47,3.23,3.33,0,*74
1493906718.98,24868,14.69,73650.8,4.47,3.53,3.67,0,*7D
1493906720.21,24869,14.69,73652.5,4.51,3.79,3.81,0,*7B
1493906721.43,24870,14.69,73650.3,4.51,3.85,4.05,0,*7B
1493906722.63,24871,14.69,73652.0,4.51,4.07,4.19,0,*7A
1493906723.88,24872,14.69,73648.5,4.51,3.97,4.05,0,*7A
1493906725.09,24873,14.69,73648.5,4.53,3.93,4.05,0,*7D
1493906726.34,24874,14.69,73646.0,4.55,3.37,3.49,0,*7D
1493906727.55,24875,14.69,73648.0,4.55,3.29,3.29,0,*75
1493906728.75,24876,14.69,73642.3,4.53,3.37,3.55,0,*74
1493906729.97,24877,14.69,73644.3,4.55,3.49,3.59,0,*76
1493906731.19,24878,14.69,73646.5,4.55,3.53,3.63,0,*7B
1493906732.42,24879,14.69,73640.5,4.55,3.49,3.63,0,*71
1493906733.62,24880,14.69,73642.3,4.55,3.59,3.63,0,*76
1493906734.81,24881,14.69,73650.0,4.57,3.53,3.63,0,*7F
1493906736.01,24882,14.69,73646.8,4.57,3.63,3.67,0,*7B
1493906737.23,24883,14.69,73648.5,4.57,3.33,3.53,0,*78
1493906738.46,24884,14.69,73644.5,4.57,3.23,3.45,0,*79
1493906739.69,24885,14.69,73644.8,4.57,3.41,3.53,0,*7B
1493906740.91,24886,14.69,73646.8,4.57,3.33,3.33,0,*7B
1493906742.15,24887,14.69,73652.0,4.61,3.19,3.41,0,*72
1493906743.37,24888,14.69,73648.3,4.57,3.33,3.53,0,*73
1493906744.59,24889,14.69,73650.3,4.57,3.53,3.75,0,*70
1493906745.79,24890,14.69,73652.3,4.57,3.63,3.75,0,*7B
1493906746.99,24891,14.69,73652.3,4.61,3.63,3.67,0,*7C
1493906748.2,24892,14.69,73654.8,4.61,3.63,3.67,0,*7F
1493906749.4,24893,14.69,73654.8,4.61,3.79,3.85,0,*79
1493906750.63,24894,14.69,73656.3,4.57,3.33,3.33,0,*78
1493906751.86,24895,14.69,73652.8,4.61,3.11,3.19,0,*74
1493906753.04,24896,14.69,73648.8,4.57,3.29,3.29,0,*7A
1493906754.23,24897,14.69,73650.3,4.57,3.63,3.67,0,*7F
1493906755.43,24898,14.69,73652.8,4.57,3.45,3.55,0,*75
1493906756.66,24899,14.69,73650.5,4.57,3.33,3.45,0,*74
1493906757.92,24900,14.69,73652.3,4.63,3.07,3.11,0,*74
1493906759.12,24901,14.69,73654.5,4.57,2.85,2.95,0,*74
1493906760.32,24902,14.69,73652.0,4.57,2.61,2.73,0,*75
1493906761.52,24903,14.69,73656.3,4.57,2.85,2.95,0,*76
1493906762.75,24904,14.69,73654.5,4.55,3.29,3.41,0,*7C
1493906764.01,24905,14.69,73654.5,4.55,3.03,3.07,0,*77
1493906765.26,24906,14.69,73650.3,4.55,2.77,2.81,0,*79
1493906766.52,24907,14.69,73640.8,4.55,1.97,2.05,0,*79
1493906767.75,24908,14.69,73648.3,4.53,1.93,2.17,0,*77
1493906768.93,24909,14.69,73650.0,4.53,2.27,2.31,0,*7E
1493906770.18,24910,14.69,73646.0,4.51,2.01,2.13,0,*70
1493906771.39,24911,14.69,73648.0,4.49,2.27,2.43,0,*79
1493906772.59,24912,14.69,73652.3,4.49,2.99,3.11,0,*79
1493906773.82,24913,14.69,73650.0,4.51,3.37,3.55,0,*74
1493906775.02,24914,14.69,73648.8,4.49,3.63,3.75,0,*79
1493906776.22,24915,14.69,73648.8,4.51,4.19,4.37,0,*7A
1493906777.43,24916,14.69,73648.3,4.51,4.41,4.57,0,*72
1493906778.66,24917,14.69,73648.3,4.55,4.53,4.59,0,*7A
1493906779.86,24918,14.69,73654.0,4.55,4.07,4.19,0,*70
1493906781.09,24919,14.69,73650.8,4.55,4.31,4.41,0,*79
1493906782.28,24920,14.69,73650.3,4.61,4.57,4.57,0,*73
1493906783.51,24921,14.69,73650.0,4.61,3.75,3.79,0,*7E
1493906784.72,24922,14.69,73648.0,4.61,4.05,4.23,0,*75
1493906785.92,24923,14.69,73648.8,4.61,4.49,4.59,0,*71
1493906787.16,24924,14.69,73648.8,4.61,4.71,4.75,0,*73
1493906788.39,24925,14.69,73650.5,4.63,4.19,4.31,0,*7E
1493906789.65,24926,14.69,73648.3,4.63,4.67,4.79,0,*78
1493906790.88,24927,14.69,73650.5,4.65,4.63,4.75,0,*77
1493906792.06,24928,14.69,73650.3,4.65,4.37,4.41,0,*7E
1493906793.3,24929,14.69,73648.5,4.69,4.67,4.75,0,*71
1493906794.48,24930,14.69,73648.5,4.69,4.11,4.23,0,*7B
1493906795.7,24931,14.69,73648.5,4.69,3.97,4.05,0,*77
1493906796.94,24932,14.69,73654.5,4.69,4.67,4.75,0,*7B
1493906798.14,24933,14.69,73650.0,4.73,4.75,4.85,0,*7D
1493906799.31,24934,14.69,73652.5,4.73,4.15,4.27,0,*74
1493906800.5,24935,14.69,73650.0,4.73,4.27,4.37,0,*75
1493906801.7,24936,14.69,73652.8,4.73,3.93,4.01,0,*7B
1493906802.88,24937,14.69,73648.3,4.73,3.59,3.59,0,*76
1493906804.07,24938,14.69,73648.3,4.73,3.59,3.67,0,*74
1493906805.31,24939,14.69,73654.8,4.73,3.67,3.71,0,*7F
1493906806.54,24940,14.69,73654.0,4.73,3.67,3.79,0,*79
1493906807.76,24941,14.69,73648.0,4.73,4.01,4.05,0,*73
1493906808.99,24942,14.69,73644.8,4.73,3.71,3.71,0,*74
1493906810.22,24943,14.69,73650.3,4.73,3.45,3.49,0,*79
1493906811.42,24944,14.69,73648.5,4.73,2.99,3.07,0,*74
1493906812.66,24945,14.69,73648.0,4.73,3.23,3.33,0,*72
1493906813.88,24946,14.69,73648.3,4.73,3.33,3.49,0,*7D
1493906815.09,24947,14.69,73650.3,4.73,3.89,4.05,0,*72
1493906816.29,24948,14.69,73644.8,4.73,4.05,4.15,0,*7F
1493906817.52,24949,14.69,73642.0,4.73,3.67,3.67,0,*7F
1493906818.73,24950,14.69,73644.5,4.73,3.25,3.45,0,*71
1493906819.96,24951,14.69,73640.8,4.75,3.59,3.67,0,*7D
1493906821.18,24952,14.69,73640.0,4.75,3.55,3.67,0,*72
1493906822.39,24953,14.69,73640.5,4.77,4.05,4.11,0,*75
1493906823.57,24954,14.69,73640.5,4.77,4.23,4.41,0,*73
1493906824.78,24955,14.69,73644.8,4.77,4.31,4.33,0,*74
1493906825.99,24956,14.69,73644.0,4.79,4.37,4.49,0,*72
1493906827.19,24957,14.69,73646.5,4.79,4.07,4.11,0,*7D
1493906828.42,24958,14.69,73644.0,4.79,3.79,3.85,0,*76
1493906829.65,24959,14.69,73646.5,4.79,3.85,3.97,0,*77
1493906830.83,24960,14.69,73646.8,4.81,4.15,4.33,0,*7D
1493906832.04,24961,14.69,73642.3,4.81,4.57,4.71,0,*7C
1493906833.22,24962,14.69,73644.8,4.81,4.81,4.85,0,*7F
1493906834.42,24963,14.69,73644.8,4.87,4.49,4.53,0,*77
1493906835.62,24964,14.69,73642.3,4.87,4.11,4.15,0,*7F
1493906836.87,24965,14.69,73644.0,4.87,4.01,4.05,0,*7E
1493906838.11,24966,14.69,73642.3,4.87,4.27,4.31,0,*7E
1493906839.31,24967,14.69,73646.8,4.89,4.75,4.85,0,*79
1493906840.54,24968,14.69,73644.8,4.89,4.93,5.01,0,*73
1493906841.74,24969,14.69,73642.8,4.91,4.89,4.89,0,*71
1493906842.97,24970,14.69,73648.0,4.93,4.79,4.89,0,*74
1493906844.17,24971,14.69,73642.3,4.89,4.59,4.53,0,*7B
1493906845.38,24972,14.69,73642.0,4.93,4.33,4.49,0,*74
1493906846.59,24973,14.69,73644.8,4.93,4.19,4.23,0,*71
1493906847.79,24974,14.69,73644.5,4.93,4.19,4.27,0,*72
1493906849.02,24975,14.69,73646.0,4.93,4.01,4.23,0,*7E
1493906850.28,24976,14.69,73642.5,4.93,3.79,3.97,0,*7D
1493906851.5,24977,14.69,73650.3,4.91,4.01,4.19,0,*77
1493906852.73,24978,14.69,73652.3,4.93,4.45,4.59,0,*7E
1493906853.96,24979,14.69,73648.8,4.93,4.57,4.67,0,*71
1493906855.17,24980,14.69,73642.3,4.93,4.45,4.49,0,*78
1493906856.35,24981,14.69,73636.0,4.95,4.37,4.53,0,*71
1493906857.57,24982,14.69,73636.0,4.95,3.79,3.81,0,*77
1493906858.78,24983,14.75,73642.5,4.93,3.85,4.07,0,*7A
1493906859.99,24984,14.69,73646.0,4.95,3.79,3.89,0,*79
1493906861.19,24985,14.69,73646.5,4.95,4.01,4.15,0,*72
1493906862.4,24986,14.69,73644.0,4.95,4.49,4.71,0,*7F
1493906863.64,24987,14.69,73644.0,4.97,5.01,5.19,0,*7E
1493906864.88,24988,14.69,73648.3,4.99,4.97,5.01,0,*78
1493906866.07,24989,14.69,73642.0,4.99,4.33,4.53,0,*71
1493906867.3,24990,14.69,73646.8,4.97,3.93,4.05,0,*79
1493906868.5,24991,14.75,73644.5,4.99,3.85,3.97,0,*7D
1493906869.72,24992,14.69,73640.8,4.99,3.53,3.53,0,*7D
1493906870.95,24993,14.69,73644.0,4.97,3.81,4.01,0,*7D
1493906872.18,24994,14.69,73644.5,4.97,4.23,4.31,0,*76
1493906873.41,24995,14.69,73648.0,4.97,3.71,3.81,0,*7B
1493906874.66,24996,14.69,73644.0,4.97,3.71,3.79,0,*7F
1493906875.92,24997,14.69,73648.5,4.97,3.23,3.41,0,*72
1493906877.16,24998,14.69,73648.8,4.97,3.29,3.45,0,*73
1493906878.36,24999,14.69,73648.5,4.97,2.95,2.99,0,*74
1493906879.62,25000,14.69,73644.3,4.93,2.55,2.59,0,*78
1493906880.87,25001,14.69,73646.3,4.93,2.21,2.21,0,*75
1493906882.08,25002,14.69,73652.3,4.89,1.43,1.47,0,*79
1493906883.33,25003,14.69,73650.0,4.87,1.63,1.67,0,*76
1493906884.53,25004,14.69,73652.3,4.85,1.41,1.33,0,*72
1493906885.74,25005,14.69,73650.5,4.81,1.75,1.85,0,*7D
1493906886.96,25006,14.69,73654.5,4.79,1.79,1.89,0,*79
1493906888.16,25007,14.69,73650.0,4.77,1.75,1.71,0,*7D
1493906889.39,25008,14.69,73650.8,4.75,1.79,1.89,0,*7B
1493906890.63,25009,14.69,73648.3,4.75,1.89,1.93,0,*7E
1493906891.86,25010,14.69,73650.8,4.73,1.93,2.05,0,*77
1493906893.08,25011,14.69,73644.0,4.73,1.89,2.01,0,*79
1493906894.28,25012,14.69,73650.3,4.73,1.83,2.01,0,*70
1493906895.54,25013,14.69,73648.3,4.67,1.85,1.85,0,*7D
1493906896.79,25014,14.69,73648.8,4.67,1.59,1.71,0,*70
1493906898.03,25015,14.69,73648.3,4.67,1.59,1.59,0,*7B
1493906899.25,25016,14.75,73654.3,4.63,1.43,1.41,0,*7E
1493906900.51,25017,14.69,73654.3,4.63,1.21,1.29,0,*75
1493906901.74,25018,14.69,73654.3,4.57,1.25,1.29,0,*79
1493906902.91,25019,14.69,73654.8,4.57,1.41,1.41,0,*74
1493906904.15,25020,14.69,73656.3,4.55,1.43,1.59,0,*77
1493906905.38,25021,14.69,73654.0,4.55,1.75,1.93,0,*75
1493906906.58,25022,14.69,73652.8,4.53,2.01,2.27,0,*7C
1493906907.79,25023,14.69,73652.5,4.53,2.31,2.39,0,*71
1493906909.02,25024,14.69,73652.3,4.53,2.51,2.55,0,*7A
1493906910.23,25025,14.69,73656.0,4.53,2.27,2.43,0,*7D
1493906911.4,25026,14.69,73650.3,4.53,2.27,2.27,0,*7C
1493906912.64,25027,14.69,73654.5,4.53,2.01,2.13,0,*7E
1493906913.87,25028,14.69,73648.3,4.53,2.01,2.17,0,*75
1493906915.1,25029,14.69,73648.3,4.51,2.31,2.43,0,*74
1493906916.33,25030,14.69,73648.8,4.51,2.51,2.61,0,*7A
1493906917.59,25031,14.69,73656.0,4.51,2.43,2.43,0,*78
1493906918.81,25032,14.69,73654.8,4.51,2.31,2.55,0,*79
1493906920.05,25033,14.69,73650.5,4.49,2.39,2.51,0,*7D
1493906921.25,25034,14.69,73648.3,4.49,2.35,2.47,0,*71
1493906922.43,25035,14.69,73650.8,4.49,2.27,2.35,0,*76
1493906923.63,25036,14.69,73654.3,4.49,2.21,2.27,0,*70
1493906924.86,25037,14.69,73650.8,4.49,2.47,2.59,0,*78
1493906926.04,25038,14.69,73652.3,4.49,2.27,2.35,0,*7B
1493906927.3,25039,14.69,73648.8,4.51,2.39,2.51,0,*7E
1493906928.52,25040,14.69,73654.5,4.47,2.61,2.69,0,*71
1493906929.75,25041,14.69,73648.3,4.47,2.35,2.47,0,*7D
1493906930.97,25042,14.69,73644.5,4.47,2.73,2.95,0,*73
1493906932.2,25043,14.69,73648.3,4.47,2.81,2.91,0,*7B